Date String (YYYY-MM-DD hh:mm:ss) UTC,Instrument flags,Ambient pressure (hPa),Sample flow (lpm),Bypass flow (lpm),Sample temperature (°C),Ambient temperature (°C),ASC tube jacket temperature (°C),LED temperature (°C),Box temperature (°C),Sample RH (%),Span deviation,Mass concentration (μg/m³),Mass concentration (μg/m³),Mass concentration (μg/m³)
DateTimeUTC,F1_M11,P_M11,Q1_M11,Q2_M11,T1_M11,T2_M11,T3_M11,T4_M11,T5_M11,U1_M11,ZSPAN_M11,X2_M11,X0_M11,X1_M11
2021-12-21 22:00:00,,0822.8,5.01,0.00,25.8,25.0,00.0,34.8,27.5,04.8,0000.0,0001.01,0004.99,0000.70
2021-12-21 22:01:00,,0822.9,5.00,0.00,25.8,25.0,00.0,34.8,27.5,04.8,0000.0,0001.02,0005.51,0000.71
2021-12-21 22:02:00,,0822.9,4.99,0.00,25.8,25.0,00.0,34.8,27.5,04.9,0000.0,0001.03,0005.93,0000.71
2021-12-21 22:03:00,,0822.7,5.02,0.00,25.8,25.1,00.0,34.8,27.5,04.9,0000.0,0001.01,0005.91,0000.69
2021-12-21 22:04:00,,0822.9,4.99,0.00,25.8,25.1,00.0,34.8,27.5,04.9,0000.0,0001.04,0006.92,0000.68
2021-12-21 22:05:00,,0822.6,5.01,0.00,25.8,25.1,00.0,34.8,27.6,04.9,0000.0,0001.03,0006.79,0000.70
2021-12-21 22:06:00,,0822.8,5.00,0.00,25.8,25.1,00.0,34.8,27.6,04.9,0000.0,0001.03,0005.57,0000.70
2021-12-21 22:07:00,,0822.7,5.00,0.00,25.8,25.1,00.0,34.8,27.6,04.8,0000.0,0001.01,0004.64,0000.70
2021-12-21 22:08:00,,0822.6,4.99,0.00,25.8,25.1,00.0,34.8,27.6,04.8,0000.0,0000.99,0003.48,0000.70
2021-12-21 22:09:00,,0822.7,5.02,0.00,25.8,25.1,00.0,34.8,27.6,04.8,0000.0,0000.99,0003.43,0000.71
2021-12-21 22:10:00,,0822.7,4.99,0.00,25.8,25.1,00.0,34.8,27.6,04.9,0000.0,0001.06,0003.79,0000.70
2021-12-21 22:11:00,,0822.4,5.00,0.00,25.8,25.1,00.0,34.8,27.6,04.9,0000.0,0001.07,0003.93,0000.69
2021-12-21 22:12:00,,0822.6,5.00,0.00,25.8,25.1,00.0,34.8,27.6,04.9,0000.0,0001.06,0003.86,0000.67
2021-12-21 22:13:00,,0822.6,5.00,0.00,25.8,25.2,00.0,34.8,27.6,04.9,0000.0,0001.05,0004.52,0000.65
2021-12-21 22:14:00,,0822.7,5.01,0.00,25.9,25.2,00.0,34.8,27.6,04.9,0000.0,0001.04,0004.46,0000.65
2021-12-21 22:15:00,,0822.4,4.99,0.00,25.9,25.2,00.0,34.8,27.7,04.8,0000.0,0000.99,0003.54,0000.64
2021-12-21 22:16:00,,0822.4,5.01,0.00,25.9,25.2,00.0,34.8,27.7,04.9,0000.0,0001.05,0004.71,0000.62
2021-12-21 22:17:00,,0822.4,4.99,0.00,25.9,25.3,00.0,34.8,27.7,05.0,0000.0,0001.11,0005.97,0000.60
2021-12-21 22:18:00,,0822.5,5.01,0.00,25.9,25.3,00.0,34.8,27.7,05.0,0000.0,0001.18,0008.09,0000.58
2021-12-21 22:19:00,,0822.3,5.00,0.00,25.9,25.3,00.0,34.8,27.7,04.9,0000.0,0001.21,0008.50,0000.56
2021-12-21 22:20:00,,0822.2,4.99,0.00,26.0,25.3,00.0,34.8,27.8,05.0,0000.0,0001.28,0009.45,0000.55
2021-12-21 22:21:00,,0822.2,5.00,0.00,26.0,25.3,00.0,34.9,27.8,04.9,0000.0,0001.31,0010.04,0000.54
2021-12-21 22:22:00,,0821.8,5.01,0.00,26.0,25.3,00.0,34.9,27.8,04.9,0000.0,0001.41,0010.90,0000.55
2021-12-21 22:23:00,,0822.1,4.98,0.00,26.0,25.3,00.0,34.9,27.8,05.0,0000.0,0001.55,0011.80,0000.56
2021-12-21 22:24:00,,0822.2,5.01,0.00,26.0,25.3,00.0,34.9,27.7,05.0,0000.0,0001.59,0011.83,0000.56
2021-12-21 22:25:00,,0821.7,5.01,0.00,26.0,25.3,00.0,34.9,27.7,05.0,0000.0,0001.63,0012.51,0000.56
2021-12-21 22:26:00,,0821.9,4.99,0.00,26.0,25.3,00.0,34.9,27.8,05.0,0000.0,0001.85,0013.73,0000.58
2021-12-21 22:27:00,,0822.2,5.02,0.00,26.0,25.3,00.0,34.9,27.8,05.0,0000.0,0001.86,0013.98,0000.58
2021-12-21 22:28:00,,0822.4,4.99,0.00,26.0,25.3,00.0,34.9,27.8,05.0,0000.0,0001.84,0013.47,0000.58
2021-12-21 22:29:00,,0822.3,5.00,0.00,26.0,25.2,00.0,34.9,27.7,04.9,0000.0,0001.81,0012.15,0000.59
2021-12-21 22:30:00,,0822.2,5.01,0.00,26.0,25.2,00.0,34.9,27.7,04.9,0000.0,0001.82,0012.02,0000.59
2021-12-21 22:31:00,,0821.8,4.99,0.00,25.9,25.2,00.0,34.9,27.7,04.9,0000.0,0001.84,0011.54,0000.59
2021-12-21 22:32:00,,0822.2,5.02,0.00,25.9,25.2,00.0,34.9,27.7,04.9,0000.0,0002.00,0011.97,0000.60
2021-12-21 22:33:00,,0822.2,4.98,0.00,26.0,25.2,00.0,34.9,27.7,04.9,0000.0,0002.09,0011.75,0000.61
2021-12-21 22:34:00,,0821.7,5.01,0.00,25.9,25.2,00.0,34.9,27.7,04.9,0000.0,0002.03,0011.46,0000.60
2021-12-21 22:35:00,,0821.5,4.99,0.00,25.9,25.2,00.0,34.9,27.7,05.0,0000.0,0002.16,0012.14,0000.60
2021-12-21 22:36:00,,0821.8,5.00,0.00,25.9,25.1,00.0,34.9,27.7,04.9,0000.0,0002.16,0011.52,0000.60
2021-12-21 22:37:00,,0822.0,5.00,0.00,25.9,25.1,00.0,34.9,27.7,04.9,0000.0,0002.01,0010.83,0000.58
2021-12-21 22:38:00,,0822.2,4.99,0.00,25.9,25.1,00.0,34.9,27.6,04.9,0000.0,0002.02,0010.29,0000.58
2021-12-21 22:39:00,,0821.9,5.01,0.00,25.9,25.1,00.0,34.9,27.6,04.9,0000.0,0002.13,0011.11,0000.59
2021-12-21 22:40:00,,0821.4,5.01,0.00,25.9,25.0,00.0,34.9,27.6,04.9,0000.0,0002.47,0012.02,0000.61
2021-12-21 22:41:00,,0821.3,5.01,0.00,25.9,25.0,00.0,34.9,27.6,05.0,0000.0,0002.69,0012.95,0000.62
2021-12-21 22:42:00,,0821.6,5.00,0.00,25.9,25.0,00.0,34.9,27.6,05.0,0000.0,0002.86,0013.44,0000.63
2021-12-21 22:43:00,,0821.6,5.00,0.00,25.9,25.0,00.0,34.9,27.6,04.9,0000.0,0002.79,0013.59,0000.64
2021-12-21 22:44:00,,0821.8,5.01,0.00,25.9,25.0,00.0,34.9,27.7,04.9,0000.0,0002.79,0013.82,0000.64
2021-12-21 22:45:00,,0822.0,4.99,0.00,25.9,25.0,00.0,34.9,27.7,04.9,0000.0,0002.79,0013.33,0000.63
2021-12-21 22:46:00,,0822.1,5.01,0.00,25.9,25.0,00.0,34.9,27.7,04.9,0000.0,0002.72,0012.41,0000.62
2021-12-21 22:47:00,,0821.8,4.99,0.00,25.9,24.9,00.0,34.8,27.6,04.9,0000.0,0002.90,0013.65,0000.63
2021-12-21 22:48:00,,0821.6,5.01,0.00,25.8,24.9,00.0,34.8,27.6,05.0,0000.0,0003.15,0014.97,0000.66
2021-12-21 22:49:00,,0821.5,5.01,0.00,25.8,24.9,00.0,34.8,27.6,05.0,0000.0,0003.33,0016.18,0000.69
2021-12-21 22:50:00,,0821.5,4.98,0.00,25.8,24.9,00.0,34.8,27.6,05.0,0000.0,0003.31,0016.39,0000.69
2021-12-21 22:51:00,,0821.2,5.01,0.00,25.8,24.9,00.0,34.8,27.6,05.0,0000.0,0003.12,0015.70,0000.67
2021-12-21 22:52:00,,0821.5,5.00,0.00,25.8,24.9,00.0,34.8,27.6,04.9,0000.0,0002.94,0014.71,0000.64
2021-12-21 22:53:00,,0821.5,4.99,0.00,25.8,24.8,00.0,34.8,27.6,04.9,0000.0,0002.76,0013.92,0000.62
2021-12-21 22:54:00,,0821.8,5.00,0.00,25.8,24.8,00.0,34.8,27.6,04.8,0000.0,0002.66,0012.76,0000.60
2021-12-21 22:55:00,,0821.7,5.01,0.00,25.8,24.8,00.0,34.8,27.6,04.8,0000.0,0002.55,0012.69,0000.59
2021-12-21 22:56:00,,0821.6,5.00,0.00,25.8,24.8,00.0,34.8,27.6,04.7,0000.0,0002.67,0013.28,0000.61
2021-12-21 22:57:00,,0821.4,5.00,0.00,25.8,24.8,00.0,34.8,27.6,04.6,0000.0,0002.78,0014.19,0000.61
2021-12-21 22:58:00,,0821.4,5.00,0.00,25.8,24.8,00.0,34.8,27.6,04.5,0000.0,0002.81,0013.30,0000.61
2021-12-21 22:59:00,,0821.5,4.99,0.00,25.8,24.8,00.0,34.8,27.5,04.5,0000.0,0002.65,0011.82,0000.60
